Location: Newark
(0.5300°S, 127.4800°E)
Time: 02:01:46
(UTC+00:00)

A-11 Canister half - Pass Details

Date: 24 September 2019
Orbit: 1514 x 1686 km, 47.2° (Epoch: 21 October)

Event Time Altitude Azimuth Distance (km) Brightness Sun altitude
Rises 23:05:21 0° 252° (WSW) 4,835 11.1 25.8°
Reaches altitude 10° 23:09:36 10° 267° (W) 3,816 10.6 26.9°
Maximum altitude 23:16:14 21° 312° (NW) 3,005 10.3 28.6°
Drops below altitude 10° 23:22:46 10° 357° (N) 3,716 11.1 30.2°
Sets 23:26:54 0° 13° (NNE) 4,674 11.7 31.2°
